STARLINK-36263, 67202

Orbit data source: Space-Track

STARLINK-36263, 67202 is a payload satellite owned by SpaceX/Seattle (US) in LEO that was launched on Wed, 17 Dec 2025 UTC via an FALCON 9 launch vehicle from the Air Force Western Test Range (AFWTR). Payload-class satellites include a variety of spacecraft equipped with specific instruments for various scientific and technological missions. These include communications satellites like Starlink; space stations such as the ISS; scientific satellites like the Hubble; Earth observation satellites from companies like Planet Labs, Umbra, and HawkEye 360; GPS; miniature CubeSats for education and research; and military/defense satellites.

Loading next visibility...
Identifier
67202, 2025-304L
Orbit
LEO
Country
Flag of USUS
Related business
Manufacturer
SpaceX/Seattle
Mission
Operational Commercial Communications
Bus & Motor
STARLINK V2MO, Unknown motor
Mass
575 kg wet, ~530 kg dry
Launch date (UTC)
2025-12-17 (6 months ago)
Launch vehicle
FALCON 9
Launch site
Air Force Western Test Range (AFWTR)
Object type
Payload
Rocket body
Debris
Shape & HBR
Box + 2 Pan, 17.7 m
Radar Cross Section
36.964 m², Large (>1 m²)

Expand to show TLE details & history
Last TLE update: 10 hours ago

TLE from 10 hours ago
0 STARLINK-36263
1 67202U 25304L   26171.43946941 -.00002323  00000-0 -18694-3 0  9991
2 67202  70.0014 275.4667 0002956 269.0734  91.0086 14.98328532 29270
Epoch: 2026-06-20T10:32Z
TLE epoch observation values (Epoch: 2026-06-20T10:32:50.157Z)
Latitude
-0.00004°
Longitude
-151.39637°
Altitude
574.521 km
Speed
7.574 km/s
True Right ascension
18h 21m 52s
True Declination
0° 00' 00"
Sunlit
Object was in full shadow at epoch
Visualization orbit readout
Latitude
Unknown
Longitude
Unknown
Altitude
Unknown
Speed
Unknown
Apparent Right ascension
Unknown
Apparent Declination
Unknown
Sunlit
N/A
Visualization observer readout
Local Sidereal Time
07:13:44
Azimuth
Unknown
Elevation
Unknown
Doppler factor
Unknown
Orbital elements
Apogee altitude
572.062 km
Perigee altitude
567.955 km
Semi-major axis
6,948.146 km
Eccentricity
0.0003
Inclination
70.0014°
RAAN
275.4667°
Arg. of periapsis
269.0734°
True anomaly
91.04247°
Mean anomaly
91.0086°
Eccentric anomaly
91.02553°
Mean motion
3.74748 °/min
Orbital period
96.06 mins
BSTAR
-0.00018694
Loading maneuver chart data...
Computing Atmospheric mass density...
Loading historical data...
Loading historical data...
Loading historical data...
Loading historical data...
Loading historical data...
Loading historical data...
Loading historical data...

Documentation

Showing up to 5 results
|